CST,Max TemperatureF,Mean TemperatureF,Min TemperatureF,Max Dew PointF,MeanDew PointF,Min DewpointF,Max Humidity, Mean Humidity, Min Humidity, Max Sea Level PressureIn, Mean Sea Level PressureIn, Min Sea Level PressureIn, Max VisibilityMiles, Mean VisibilityMiles, Min VisibilityMiles, Max Wind SpeedMPH, Mean Wind SpeedMPH, Max Gust SpeedMPH,PrecipitationIn, CloudCover, Events, WindDirDegrees
2011-12-1,26,18,9,15,9,3,83,65,47,30.64,30.47,30.20,10,10,10,20,10,25,0.00,2,,276
2011-12-2,39,29,19,26,19,15,84,68,51,30.16,29.88,29.74,10,10,10,31,16,38,0.00,5,,199
2011-12-3,32,27,21,24,19,12,85,77,68,30.14,30.04,29.86,10,10,10,21,10,28,T,6,Snow,312
2011-12-4,21,15,9,13,10,3,73,70,67,30.58,30.31,30.08,10,10,6,24,10,31,T,8,Snow,27
2011-12-5,11,4,-3,3,-3,-7,87,73,58,30.70,30.60,30.48,10,10,10,17,7,22,T,2,,309
2011-12-6,28,15,1,19,5,-3,87,65,42,30.44,30.04,29.78,10,10,10,32,17,38,0.00,3,,194
2011-12-7,36,25,13,21,13,2,80,59,38,30.09,30.02,29.85,10,10,10,28,13,35,T,4,,299
2011-12-8,21,13,5,6,1,-3,76,60,43,30.19,30.13,30.05,10,10,10,26,14,32,0.00,1,,284
2011-12-9,18,9,-1,1,-5,-8,76,58,39,30.35,30.28,30.17,10,10,10,16,9,20,0.00,1,,265
2011-12-10,38,24,10,21,15,2,84,68,52,30.13,29.98,29.80,10,10,10,15,9,18,0.00,3,,196
2011-12-11,41,28,15,25,19,12,84,69,54,30.14,29.91,29.77,10,10,10,16,8,20,0.00,2,,328
2011-12-12,24,19,14,18,14,11,96,87,77,30.43,30.33,30.16,10,10,9,18,12,23,0.00,5,,351
2011-12-13,30,23,16,25,19,14,92,83,74,30.43,30.22,30.01,10,8,6,12,3,14,0.00,8,,232
2011-12-14,34,30,26,30,26,20,92,84,75,30.01,29.82,29.70,10,6,0,20,6,24,T,8,,228
2011-12-15,31,21,11,22,14,5,77,66,55,30.43,30.09,29.74,10,10,7,30,15,39,T,6,Snow,333
2011-12-16,21,16,10,17,10,4,84,76,67,30.46,30.38,30.24,10,8,2,14,6,17,0.02,8,Snow,157
2011-12-17,35,23,11,20,17,9,92,72,52,30.20,30.08,29.95,10,10,10,20,11,25,0.00,3,,234
2011-12-18,51,36,20,31,25,17,91,69,46,29.98,29.74,29.52,10,10,10,31,14,37,0.00,5,,281
2011-12-19,29,21,12,23,17,9,88,79,69,30.30,30.20,30.00,10,10,10,18,7,23,0.00,5,,282
2011-12-20,42,28,14,24,18,11,88,68,48,30.14,29.74,29.55,10,10,10,25,11,33,0.00,4,,204
2011-12-21,33,28,23,25,21,13,92,74,55,30.22,29.86,29.59,10,10,9,20,10,25,T,8,Snow,347
2011-12-22,32,22,12,19,14,8,88,73,58,30.32,30.23,30.00,10,10,9,14,7,17,T,6,Snow,246
2011-12-23,32,20,8,20,15,6,92,75,58,30.13,30.02,29.88,10,10,10,20,10,24,0.00,4,,302
2011-12-24,41,24,6,25,17,4,92,69,45,30.03,29.97,29.89,10,10,10,28,12,35,0.00,3,,238
2011-12-25,44,35,25,25,23,20,81,63,45,30.28,30.11,29.81,10,10,10,20,13,25,0.00,3,,249
2011-12-26,49,36,22,30,24,15,81,60,39,29.92,29.63,29.44,10,10,10,33,19,44,0.00,6,,274
2011-12-27,22,13,4,14,3,-1,86,72,58,30.21,30.09,29.96,10,10,3,30,11,37,T,5,Snow,356
2011-12-28,36,24,11,30,21,7,100,82,64,29.91,29.65,29.49,10,6,2,15,8,20,0.13,7,Snow,161
2011-12-29,30,17,3,25,13,3,96,88,80,29.71,29.65,29.57,10,7,0,15,5,18,T,6,Fog-Snow,356
2011-12-30,25,23,21,22,21,18,100,87,74,29.81,29.71,29.57,10,4,1,17,8,22,0.35,8,Snow,53
2011-12-31,36,30,24,32,27,20,100,88,75,29.95,29.66,29.55,10,5,1,32,15,40,0.15,7,Rain-Snow,213